Wind_Speed
10 9 9 8 8 10 11 11 12 12 12 12 13 14 14 15 16 16 16 17 18 19 20 21 22 23 23 24 24 25 26 26 28 29 30 31 31 31 31 30 30 30 30 30 30 29 29 29 30 30 29 29 30 30 30 29 28 28 26 26 25 24 25 23 16 17 26 30 31 35 33 32 34 35 35 36 36 35 37 39 40 42 43 44 45
10 9 9 8 8 9 10 12 13 13 13 13 13 14 14 15 16 16 17 18 20 21 23 24 25 26 26 27 27 28 28 28 29 30 30 31 32 32 33 33 33 33 32 31 31 29 28 29 30 30 29 29 31 31 31 31 30 31 30 28 29 28 25 25 23 18 22 26 28 33 34 31 34 36 34 35 36 35 37 40 40 41 43 44 45
9 8 7 6 7 8 10 12 14 15 15 15 14 14 15 15 16 17 18 20 21 23 24 26 27 28 28 29 30 30 30 30 29 29 29 30 31 32 32 32 32 33 34 34 34 31 30 30 30 29 26 28 31 31 31 31 31 32 33 31 30 31 29 27 27 23 23 25 26 29 31 31 34 36 34 35 36 36 38 40 40 41 42 44 45
8 6 4 3 5 6 8 11 13 15 17 17 17 16 16 17 18 19 20 22 24 25 26 27 28 29 30 31 31 31 30 30 29 28 28 28 28 29 30 29 30 31 32 34 35 35 34 34 34 31 26 27 31 31 30 30 31 32 33 33 31 32 31 29 29 29 26 25 25 27 29 31 33 34 33 34 34 35 38 40 40 41 42 43 44
7 5 2 1 3 5 7 9 11 14 16 18 18 18 18 19 20 21 23 25 26 27 29 29 30 31 31 31 32 31 30 29 29 28 27 26 26 27 27 28 29 30 31 32 33 33 34 36 38 35 31 29 31 31 29 28 30 31 32 34 33 32 32 30 31 32 30 28 28 28 28 30 33 34 33 33 34 35 36 39 40 40 41 42 43
7 4 2 2 3 5 7 9 11 13 16 18 19 20 20 20 22 23 25 26 28 29 30 31 31 31 32 31 31 31 29 28 28 27 26 25 26 26 27 28 29 29 30 31 31 32 32 34 37 36 34 33 34 34 31 29 30 30 31 33 33 32 33 32 31 32 31 32 31 29 27 28 30 33 32 31 33 34 35 36 38 39 39 39 41
7 4 3 3 4 5 7 9 11 13 15 18 20 21 21 21 23 24 26 28 29 30 31 31 31 31 32 32 32 31 30 29 28 26 25 25 26 28 29 29 30 30 31 32 32 32 33 33 35 36 35 35 36 36 35 32 31 31 31 32 32 31 31 32 32 31 31 32 31 29 28 27 28 31 33 31 30 33 33 30 30 33 35 38 40
7 5 4 4 5 6 7 9 11 13 15 18 20 21 21 22 23 25 27 28 29 30 31 31 32 32 32 32 32 31 31 30 27 26 26 27 28 29 30 31 32 33 33 34 34 34 35 35 35 36 36 36 36 36 36 34 32 33 33 32 31 30 31 31 31 30 30 30 30 29 28 26 26 27 29 26 25 29 30 26 27 30 31 35 38
9 7 6 6 7 8 9 10 12 14 16 19 21 22 22 23 25 27 28 29 29 30 30 30 32 33 33 33 33 32 31 29 27 25 26 27 28 30 32 33 34 35 37 38 38 37 36 36 36 36 35 34 35 35 34 34 33 34 35 34 31 30 31 31 30 29 28 27 28 29 26 24 25 24 24 24 25 28 28 25 28 31 28 30 36
12 9 9 9 9 9 10 11 13 15 18 21 23 23 24 25 27 29 30 31 31 31 31 30 31 32 33 35 34 33 32 30 28 25 23 25 28 30 33 35 36 37 39 40 41 41 39 39 38 37 36 35 35 35 34 34 34 34 35 35 33 32 31 31 30 30 28 26 27 27 23 22 26 25 24 26 28 29 27 24 26 28 24 22 29
15 13 12 11 10 10 11 12 14 17 19 22 24 24 25 27 30 31 32 32 32 32 32 31 31 31 33 34 34 34 33 31 29 27 24 24 26 29 33 36 36 36 36 37 39 41 40 39 37 35 34 33 33 33 34 34 34 34 34 34 35 34 34 33 31 30 29 27 28 28 24 24 29 29 26 27 27 26 28 27 26 25 21 16 18
17 15 14 12 11 11 12 13 15 18 21 23 24 25 27 29 30 32 32 33 33 33 33 32 32 32 32 33 34 33 33 31 29 28 26 25 25 27 30 32 32 32 31 32 33 33 33 32 31 29 28 28 28 30 31 32 33 33 34 35 35 35 35 35 34 33 30 28 28 30 29 29 32 32 28 26 26 26 27 29 28 26 24 20 19
18 16 14 12 12 12 13 15 17 20 22 24 25 26 28 29 30 31 32 32 32 33 32 32 32 32 32 34 35 34 33 32 30 27 26 26 26 27 28 29 30 30 30 29 29 29 29 29 30 29 28 28 29 30 31 33 35 35 36 37 37 38 38 37 37 37 37 35 32 33 35 34 33 35 32 27 26 25 25 28 29 28 26 25 28
18 16 14 13 12 13 14 16 19 21 22 23 25 26 28 29 29 30 30 31 32 32 32 33 32 32 32 33 35 35 34 33 30 28 27 27 27 27 28 29 29 29 29 28 28 28 28 28 29 30 29 28 28 29 30 31 32 33 35 37 38 39 39 39 39 39 40 40 38 38 40 39 37 39 39 33 30 29 27 27 28 29 31 32 37
18 15 13 13 12 13 15 18 20 21 22 23 25 26 27 28 28 29 29 30 30 31 32 32 32 32 31 32 34 36 35 33 32 30 29 28 28 28 28 28 28 28 28 26 26 27 26 26 28 29 29 27 26 27 28 29 30 32 34 35 35 36 37 38 38 38 38 38 39 40 43 44 43 43 43 39 36 36 34 32 30 30 32 34 36
16 14 12 12 12 14 17 19 20 21 22 24 25 26 27 27 27 28 28 29 29 30 30 30 31 32 32 31 33 36 35 33 32 31 28 28 29 28 28 27 27 28 27 26 25 26 26 26 27 28 28 28 28 28 29 30 32 33 34 35 35 35 35 36 34 34 35 36 38 40 43 46 47 46 46 43 40 39 38 36 33 31 28 25 26
14 12 11 11 13 16 18 19 20 22 23 24 25 25 25 26 26 26 27 29 29 29 30 30 30 31 31 31 32 35 37 34 31 30 28 28 29 29 29 28 28 28 27 26 25 25 26 26 27 29 31 31 30 30 31 32 34 35 35 36 37 35 35 34 32 32 35 37 40 42 43 46 46 46 46 45 43 41 37 33 32 30 25 17 15
12 11 11 12 15 17 18 19 21 22 23 23 24 24 24 25 25 24 25 27 29 29 29 30 30 30 30 31 30 33 36 35 31 30 29 28 28 29 30 30 30 29 27 26 26 26 27 28 29 31 33 33 33 33 33 33 34 34 33 34 34 32 31 30 30 31 32 34 37 40 42 44 45 46 46 45 44 42 39 35 34 32 26 18 15
10 11 12 14 16 16 17 19 20 21 22 22 22 23 24 24 24 24 24 25 27 28 28 30 31 30 29 30 29 30 34 35 33 30 29 27 27 29 30 30 31 30 29 29 30 30 31 32 31 32 35 36 36 35 33 32 33 33 33 34 34 33 33 33 33 32 31 32 34 36 38 40 42 45 46 45 45 45 44 42 40 35 29 26 24
11 12 14 15 16 16 17 18 19 19 20 21 21 22 23 23 24 24 24 25 26 28 28 28 30 31 29 30 30 29 32 34 33 30 28 27 27 28 30 30 31 32 32 33 34 34 36 37 35 34 35 36 35 34 33 33 34 35 35 34 34 34 35 35 34 34 34 36 36 36 38 40 40 41 43 43 45 46 46 45 45 41 35 32 30
12 14 15 15 16 16 16 16 17 17 18 19 21 22 21 22 23 23 24 25 26 28 28 28 30 31 29 29 29 30 30 32 32 30 28 28 28 28 30 31 32 33 34 33 33 35 36 37 36 35 35 35 35 35 35 35 35 36 35 34 34 35 36 36 36 35 36 37 38 39 40 41 40 40 40 40 42 43 44 45 46 46 42 38 34
13 14 15 15 15 15 15 15 16 17 17 18 20 22 21 20 21 22 23 25 27 28 29 28 28 30 30 29 29 30 30 30 31 31 30 29 29 28 31 32 32 33 34 33 33 34 36 36 37 36 34 35 36 36 37 38 37 37 36 35 37 38 38 39 39 37 35 35 35 35 37 38 39 40 40 41 42 42 42 42 44 46 46 45 42
14 14 15 15 15 14 15 15 15 16 17 17 19 21 21 20 20 21 23 25 27 28 27 27 27 30 31 30 29 30 30 30 30 31 32 31 30 30 31 32 32 33 35 35 34 35 36 37 38 37 35 36 38 39 40 41 39 37 36 37 38 39 38 37 36 34 34 34 32 32 33 34 35 36 37 38 39 40 42 41 42 44 45 46 46
14 14 15 15 15 14 14 15 15 16 16 17 18 20 20 20 21 22 22 24 26 27 27 26 26 28 30 32 31 31 31 31 31 32 32 32 32 32 32 33 33 34 36 36 36 37 37 39 41 40 39 40 42 42 41 40 38 36 36 37 38 38 36 34 34 33 33 33 32 31 33 34 34 33 34 36 36 38 40 41 42 44 45 45 45
14 15 15 15 14 14 15 15 15 15 15 16 18 19 19 21 22 22 23 24 25 26 26 25 25 26 28 30 32 32 31 31 32 33 33 32 32 32 32 33 34 34 36 37 38 39 40 42 44 44 43 43 43 42 41 39 38 37 38 38 37 36 34 33 34 34 32 32 32 32 34 36 36 35 35 38 40 40 40 41 42 44 44 43 43
15 15 14 14 13 13 15 15 14 15 15 15 17 18 19 20 22 23 24 24 24 25 25 25 24 25 26 27 30 32 31 30 32 34 34 34 34 34 34 34 34 35 36 38 39 40 41 42 44 45 44 42 41 41 40 39 37 37 38 39 38 37 36 36 35 34 32 33 35 35 36 38 39 38 38 39 41 43 43 42 42 42 41 39 37
14 14 13 13 13 13 14 15 15 15 15 15 17 18 18 19 22 24 24 24 24 24 24 23 22 23 27 29 30 30 31 32 34 35 35 34 35 34 34 34 34 34 35 37 39 40 42 44 44 43 41 39 39 39 38 37 37 37 38 39 39 39 39 39 38 36 35 36 37 38 40 41 39 38 38 38 40 42 45 46 43 39 38 37 33
14 14 13 13 13 13 13 14 15 16 16 16 17 18 18 19 21 23 23 23 24 24 23 23 24 27 30 31 30 30 33 34 35 35 35 34 35 35 34 34 34 33 34 35 37 38 38 39 38 36 35 34 34 33 33 34 34 35 37 38 40 40 40 40 38 38 38 38 39 39 39 38 37 35 35 36 38 41 44 46 44 40 37 34 28
13 14 13 13 13 13 13 14 15 16 17 18 18 19 18 18 21 24 23 21 21 23 24 26 28 29 30 30 30 32 34 34 33 33 34 34 35 36 36 35 35 35 35 37 37 35 31 28 27 26 26 26 26 26 27 29 31 33 35 36 37 38 38 38 37 38 38 38 38 36 35 35 36 36 35 34 36 40 41 41 40 38 36 32 27
14 14 14 13 13 13 13 14 15 16 17 19 20 21 20 18 18 21 23 21 20 21 23 26 27 28 29 30 29 29 31 33 33 32 33 33 34 35 35 35 36 36 36 36 35 30 26 24 23 23 22 23 23 25 28 30 31 33 35 36 35 36 36 37 37 38 38 37 35 35 34 32 33 35 33 32 35 40 39 37 36 33 31 29 25
15 14 13 13 13 12 13 14 15 16 17 18 20 22 23 22 19 17 18 19 19 20 22 24 24 24 25 27 27 26 28 31 31 31 31 32 32 32 33 34 34 34 34 33 29 24 22 22 23 24 24 24 25 27 28 29 30 31 33 35 35 35 35 35 36 37 37 36 34 33 32 31 32 33 32 33 37 38 34 33 32 32 32 29 25
15 14 13 12 12 12 13 15 15 16 17 18 18 20 22 25 24 21 18 16 18 20 20 20 19 18 19 22 25 27 27 27 28 29 30 30 31 31 31 31 31 31 30 27 22 20 20 20 22 23 24 24 25 27 28 29 31 31 31 32 34 35 35 36 37 37 35 33 31 30 29 30 32 32 32 36 38 34 28 26 27 29 29 27 25
14 14 13 12 12 13 14 14 15 16 17 18 18 19 19 21 24 26 25 22 20 19 17 14 13 14 18 21 24 25 26 26 27 28 28 28 29 29 29 29 28 27 24 20 18 19 21 22 23 24 24 25 27 29 30 31 32 33 32 33 34 36 38 39 38 34 31 29 29 28 30 31 31 29 31 35 34 27 22 21 22 24 23 21 21
14 13 13 12 13 14 14 14 15 16 16 17 17 18 18 18 19 22 25 26 25 23 21 18 16 16 20 22 22 22 24 25 26 26 27 27 27 26 26 27 26 24 20 17 18 21 23 24 25 25 25 26 28 29 30 30 30 30 32 33 35 38 40 38 33 28 27 27 27 28 29 30 30 29 29 30 28 23 21 20 19 18 17 15 15
13 13 13 13 13 14 14 14 15 15 16 16 16 16 17 17 17 18 19 21 23 25 27 27 25 24 24 23 22 22 23 24 25 25 25 24 24 25 26 27 27 26 23 21 22 23 22 22 23 25 26 28 29 29 29 30 30 30 30 33 36 39 38 33 27 25 24 24 25 27 28 28 29 29 28 27 25 22 19 19 19 18 17 15 14
13 13 13 13 13 14 14 14 14 14 15 15 15 15 16 17 17 18 18 18 20 22 26 29 29 28 27 25 25 26 26 25 25 25 23 22 23 24 24 24 24 25 25 26 26 25 23 22 23 26 28 29 30 30 30 31 31 31 31 33 36 37 35 30 26 25 24 23 25 26 27 27 27 28 26 25 24 22 19 19 20 20 20 20 18
13 14 14 13 13 14 14 14 13 14 14 15 15 16 16 16 16 17 17 18 19 20 23 26 28 29 29 28 28 29 28 26 24 23 21 21 23 24 22 21 21 22 24 26 27 26 26 26 27 29 30 31 32 32 31 30 30 30 30 33 33 33 32 31 28 26 25 24 25 26 26 26 27 26 24 22 20 20 19 18 19 18 19 20 19
13 13 13 13 13 13 14 14 14 14 15 15 15 15 15 15 16 16 16 17 18 19 21 23 23 25 28 29 29 29 29 29 29 29 28 27 27 26 24 23 22 22 23 25 26 26 28 30 31 31 31 31 31 30 29 29 29 29 30 31 32 31 30 29 27 26 25 24 25 25 25 25 25 25 24 21 19 18 17 15 15 14 15 15 14
13 13 13 12 12 13 14 14 15 15 15 15 14 13 14 15 15 15 16 16 17 18 19 20 21 22 23 26 27 27 27 28 31 33 34 32 30 28 27 26 25 24 25 26 26 27 28 30 31 31 30 30 30 29 29 28 28 29 29 29 29 29 29 28 26 25 24 23 23 23 23 23 23 23 22 20 19 18 17 15 14 13 13 13 14
12 12 12 12 12 13 13 14 15 15 14 14 13 13 13 14 14 15 15 16 17 18 18 19 20 20 21 22 23 23 23 25 27 29 30 31 31 30 29 28 27 27 27 28 28 28 28 30 31 31 30 30 30 30 29 28 28 29 29 28 27 27 28 27 27 26 25 24 23 22 21 21 22 22 21 20 19 18 17 16 16 16 15 15 16
12 12 13 13 13 13 13 14 14 14 13 13 13 13 13 13 13 14 15 15 16 17 17 17 18 19 19 19 19 19 19 21 24 25 26 27 29 29 29 28 28 28 28 29 29 29 29 30 30 30 31 31 31 30 30 29 28 28 28 28 28 27 26 26 27 27 27 26 24 22 21 19 19 18 18 19 19 18 17 16 16 17 16 15 15
12 13 13 13 13 13 13 14 14 13 12 13 13 12 12 12 12 13 14 14 14 15 16 17 18 18 18 18 17 17 18 19 21 22 24 25 26 27 27 28 28 28 28 28 29 29 29 30 30 31 31 31 31 31 31 30 30 29 28 29 30 28 26 27 29 29 28 27 26 24 22 18 16 15 15 15 14 13 13 13 13 14 14 13 13
12 13 13 13 13 13 13 13 13 12 12 13 12 11 11 12 12 12 12 13 13 13 14 16 17 18 18 18 17 18 20 21 22 23 23 24 25 26 27 27 28 28 27 27 27 28 28 29 29 30 30 30 30 30 29 30 30 29 29 30 31 30 28 29 32 32 30 28 27 25 21 17 14 11 10 10 9 8 8 9 10 11 12 12 14
12 13 13 13 13 13 13 13 13 13 12 12 12 12 11 11 11 11 11 11 12 12 13 14 16 18 18 18 19 19 21 22 23 23 24 24 25 26 27 28 28 28 28 27 27 27 28 28 28 29 30 30 30 30 29 29 29 29 29 29 30 30 29 30 31 30 28 26 25 22 19 16 13 9 7 5 4 4 5 7 9 11 12 13 15
13 13 13 13 13 13 13 12 12 12 12 12 12 12 11 10 10 10 10 10 11 11 12 13 14 16 18 18 19 20 21 22 22 23 24 25 26 26 27 27 28 28 28 27 27 27 27 28 28 29 30 31 31 31 30 30 29 29 29 29 29 29 29 29 29 27 24 23 22 19 17 14 11 8 5 2 1 3 5 7 9 11 12 13 14
13 13 13 13 13 14 13 12 12 12 12 12 13 12 11 10 9 9 9 10 10 11 12 13 14 15 16 17 18 19 20 21 22 23 23 24 25 26 27 27 27 27 27 27 27 27 27 27 28 28 29 30 31 32 32 31 30 30 30 29 29 30 29 27 26 24 22 20 18 16 14 12 9 7 5 3 2 4 6 8 9 10 11 12 13
13 13 13 13 13 14 13 13 12 12 12 12 12 12 12 10 9 9 9 10 10 11 12 13 13 14 15 16 17 18 19 20 21 22 23 24 24 25 26 26 26 27 27 27 26 26 26 27 28 28 28 29 30 31 32 32 32 31 31 31 32 32 30 27 24 22 20 18 15 13 11 9 8 7 5 5 5 6 8 9 9 10 12 12 13
13 13 13 13 13 14 14 13 12 13 13 12 12 12 12 11 10 10 10 10 10 11 12 12 13 14 14 15 16 17 18 19 20 21 22 23 23 24 25 25 26 26 26 26 26 26 25 25 26 27 28 28 29 30 32 33 33 33 33 32 32 32 31 27 24 21 19 16 14 12 10 9 8 8 7 7 8 8 10 10 11 11 12 13 13
12 12 13 13 13 14 14 13 13 13 12 12 12 12 11 11 11 11 10 11 11 11 12 13 13 14 14 15 15 16 17 19 20 21 21 22 23 23 24 24 25 25 26 26 26 25 25 24 24 25 27 27 28 28 30 32 33 33 33 33 32 31 30 28 24 21 18 16 14 12 10 10 10 10 10 10 10 11 12 12 12 13 14 13 13
12 12 12 13 13 13 13 12 13 13 13 12 13 13 12 12 12 12 11 12 12 12 12 13 14 14 14 15 16 16 17 18 20 21 21 22 22 23 23 24 24 25 25 25 25 25 25 24 24 23 24 26 27 27 28 30 32 33 33 32 31 29 29 27 24 21 18 16 14 12 11 11 11 12 12 12 12 13 13 14 14 14 15 15 15
12 12 12 13 14 13 13 13 13 13 13 12 13 13 13 13 13 13 12 13 13 13 14 14 14 14 15 15 16 17 18 18 19 20 21 22 22 23 24 24 24 25 25 25 25 25 25 25 24 23 23 23 25 26 26 28 30 32 32 32 30 28 27 26 23 21 18 16 14 13 13 13 13 14 14 14 14 15 15 15 16 16 17 17 17
Wind_Direction
143 134 124 108 91 77 65 56 51 44 40 37 33 30 24 18 15 11 7 3 359 355 351 349 346 343 340 339 337 335 333 333 334 333 332 332 332 334 334 333 331 328 325 321 320 320 317 313 310 308 309 308 305 304 304 303 302 299 297 292 286 281 273 261 258 274 279 279 281 282 282 281 277 274 273 273 272 272 273 273 272 268 264 261 258
145 136 123 106 87 73 60 47 39 32 28 25 21 19 14 9 5 0 357 354 351 348 345 344 342 340 338 336 335 333 332 332 333 332 331 330 328 329 330 330 328 326 324 320 318 317 314 310 306 305 306 304 301 300 299 299 298 295 292 290 285 283 278 266 261 269 278 279 280 282 283 280 276 274 272 272 272 271 270 271 270 268 266 263 261
153 146 128 102 77 60 46 36 28 22 18 14 9 6 2 358 355 351 348 345 343 342 340 339 337 336 335 334 333 332 332 333 334 333 332 330 329 327 327 326 324 322 320 317 316 315 312 307 303 302 302 299 296 296 295 294 293 291 289 286 282 281 280 272 265 265 273 278 278 278 281 279 275 275 274 273 273 271 269 269 268 267 266 263 260
170 164 143 88 52 38 29 23 18 14 10 6 0 356 352 349 347 344 342 341 340 339 337 336 335 334 333 333 332 332 332 333 332 330 329 328 326 324 323 322 319 317 314 312 312 311 310 307 304 303 301 296 292 291 291 290 289 287 286 284 281 279 279 275 269 267 270 277 277 275 277 278 276 277 276 274 272 269 268 267 265 264 262 260 258
187 185 180 43 16 12 9 6 4 3 1 358 353 347 344 341 340 339 338 337 337 335 334 334 334 333 332 331 331 330 331 331 328 326 326 325 323 320 318 315 312 310 307 306 305 305 304 302 302 303 302 297 293 291 288 287 286 284 283 282 281 280 279 276 272 270 269 272 276 276 275 275 276 277 275 272 271 269 266 265 263 261 259 258 256
198 206 231 301 334 342 345 346 348 349 348 348 345 340 335 333 333 334 334 333 332 331 331 331 331 330 329 329 328 328 328 327 325 324 324 324 322 317 313 310 306 304 301 300 299 297 296 296 296 297 297 295 294 293 291 288 285 282 280 280 280 279 279 276 274 272 270 270 274 275 272 271 273 275 274 271 269 267 265 263 261 258 255 254 253
206 220 249 280 305 316 325 329 332 335 335 336 335 331 328 326 327 328 329 328 328 328 328 328 328 327 327 326 327 326 326 325 324 324 325 323 320 316 312 309 305 302 299 297 295 293 291 290 290 291 291 291 290 291 291 291 288 284 280 279 279 278 276 275 274 272 271 271 273 272 271 269 266 269 273 272 268 265 261 260 261 258 253 252 251
215 227 249 265 277 289 301 309 314 320 323 326 327 325 322 322 323 324 325 325 325 326 326 326 325 325 325 325 325 325 324 323 324 325 324 322 319 315 311 308 304 302 300 297 295 293 291 289 288 287 287 286 287 287 288 289 289 287 284 281 278 276 274 273 273 271 270 271 272 272 273 270 265 264 267 264 261 260 257 254 256 257 253 252 251
224 232 247 253 260 272 285 296 305 312 317 320 322 321 320 321 322 323 324 324 324 324 324 324 324 323 324 323 323 323 322 322 323 324 323 320 317 313 309 306 304 302 301 299 297 295 293 291 289 288 287 285 285 285 285 285 286 285 285 284 281 277 273 271 270 269 269 269 271 273 273 270 266 262 258 250 248 255 258 252 252 255 254 253 253
229 233 239 243 250 266 280 292 301 307 312 316 317 318 318 319 320 321 322 322 323 323 323 324 324 323 323 322 321 321 320 319 320 320 319 316 313 311 307 304 303 302 300 298 298 297 296 294 292 290 287 285 284 284 284 284 283 281 282 282 281 278 275 271 267 266 266 266 268 270 271 269 266 262 257 254 252 254 255 248 249 255 254 251 255
229 228 229 232 244 262 276 287 297 303 308 312 314 315 315 317 318 319 319 320 320 321 322 323 324 323 322 320 319 319 317 317 318 318 316 314 312 309 306 303 302 300 298 297 298 298 299 298 297 295 292 290 288 287 284 282 281 280 280 279 278 276 274 272 269 266 263 263 265 267 267 267 268 265 262 261 257 250 248 246 246 249 246 242 254
223 221 221 229 244 261 273 285 294 301 306 309 311 313 314 315 317 317 317 318 318 319 320 321 322 322 320 318 317 317 315 316 318 317 314 313 311 307 303 301 300 298 297 298 298 299 301 301 301 299 298 298 297 294 290 286 283 281 280 278 277 275 272 271 271 270 267 264 264 264 264 266 269 268 265 263 260 252 246 243 241 241 241 240 248
216 216 220 231 246 259 272 284 292 298 302 305 307 309 311 313 314 315 315 316 316 316 317 318 319 320 319 317 316 315 315 316 318 317 313 311 310 306 301 297 296 294 295 296 297 298 300 300 299 298 298 299 299 297 293 290 286 284 281 278 276 274 272 270 270 270 271 270 267 264 263 264 266 268 266 265 263 255 243 237 237 237 238 240 245
211 215 222 234 248 261 274 284 291 295 299 302 303 306 309 310 312 313 313 313 314 315 316 317 318 318 317 317 316 314 315 317 319 317 312 310 308 305 301 296 294 292 292 294 295 295 297 297 297 297 299 300 300 298 296 293 290 286 282 278 275 274 273 272 270 268 268 267 267 267 266 265 265 267 267 265 263 259 250 242 238 236 237 242 248
210 216 226 240 253 267 279 287 292 295 298 301 303 306 309 309 310 311 311 312 312 313 314 315 316 316 316 316 315 314 315 318 319 317 312 310 308 305 300 296 294 292 292 292 293 293 295 295 294 295 297 298 299 299 298 296 293 289 285 281 278 275 273 272 270 268 267 266 265 266 267 267 266 267 267 265 261 259 258 256 253 249 246 247 250
211 220 232 247 262 276 285 289 293 296 299 302 305 307 308 308 309 311 310 309 310 311 312 314 314 314 315 316 315 314 314 318 319 315 310 308 307 304 300 297 294 293 293 293 293 293 293 293 294 294 295 296 296 297 296 295 293 291 289 286 283 279 276 274 274 273 272 269 267 266 266 266 266 265 265 265 263 261 261 261 259 255 249 247 248
215 227 241 258 274 283 288 291 294 297 300 303 305 306 307 307 308 309 309 308 309 311 312 313 313 313 313 314 315 313 314 317 317 312 307 307 306 303 299 297 295 294 293 293 293 293 292 292 293 294 294 294 294 294 294 293 290 288 286 285 282 279 277 279 281 277 274 272 270 268 267 267 267 266 265 264 262 260 258 256 254 250 246 242 245
225 240 256 271 279 283 287 291 295 297 299 302 304 304 304 304 306 308 308 308 309 311 312 311 310 311 312 313 314 312 311 314 315 309 305 305 303 301 299 297 295 294 293 293 292 292 291 291 291 291 291 290 290 291 290 289 288 287 287 287 286 283 284 288 289 283 277 275 272 270 270 270 270 270 268 265 262 259 255 251 249 247 243 238 241
241 256 268 275 278 281 286 289 292 296 298 300 301 301 302 303 305 307 307 307 308 309 309 309 308 309 310 311 312 310 309 313 315 310 305 303 302 300 299 296 294 293 293 292 292 291 288 287 288 289 289 288 288 288 287 285 284 284 286 287 286 285 288 291 291 287 284 281 277 274 272 272 272 272 270 268 264 260 256 254 251 246 242 239 239
255 264 269 272 275 280 284 287 290 293 296 298 299 299 300 303 305 307 307 308 308 307 307 307 306 307 309 310 310 309 309 312 314 311 304 301 301 299 297 295 293 292 291 290 289 287 285 285 287 288 288 286 285 286 286 285 284 284 283 281 278 281 285 285 283 283 282 281 280 278 276 274 272 270 269 267 264 259 255 253 250 246 243 241 239
259 264 268 272 276 282 285 287 290 292 294 296 296 296 299 302 303 306 307 307 307 305 305 306 305 306 308 308 308 310 310 310 311 309 303 299 300 298 295 293 291 290 289 287 285 284 284 287 289 288 285 284 283 285 286 285 283 282 279 277 277 282 286 284 282 281 279 278 278 278 276 274 271 268 267 268 267 262 254 250 247 246 243 240 239
260 265 270 276 282 287 289 289 291 292 293 295 295 296 299 302 303 305 307 306 306 304 304 306 306 305 307 307 307 309 312 311 310 309 305 299 298 297 295 294 292 290 288 286 285 285 286 286 287 285 282 282 283 283 284 284 283 281 278 278 279 282 284 284 284 283 280 277 276 274 272 271 269 266 264 263 265 264 259 251 246 245 244 242 240
262 268 275 280 284 287 288 289 291 293 295 296 296 297 300 303 304 305 305 305 304 303 303 306 306 305 306 307 307 309 312 313 312 311 307 301 298 299 298 295 293 291 288 287 287 287 286 286 285 283 281 281 282 283 284 286 287 285 284 284 285 286 288 288 287 286 283 279 277 274 273 272 270 268 265 262 261 263 262 258 250 246 246 245 243
265 270 274 278 281 284 287 290 292 294 296 297 296 298 302 304 304 304 304 304 301 300 302 304 305 305 306 307 308 309 311 312 311 309 306 301 300 301 298 295 294 292 289 288 287 287 286 285 284 283 282 284 287 289 291 292 293 292 290 290 289 289 289 287 285 284 281 278 276 274 274 274 272 270 270 268 266 264 263 261 257 250 247 246 245
265 269 272 276 281 285 286 289 292 293 296 297 297 300 303 303 302 301 302 300 297 297 299 301 303 303 303 304 306 308 309 309 307 306 304 301 300 300 296 293 293 291 289 287 285 285 285 285 287 289 290 292 295 295 294 294 293 291 290 290 289 287 285 283 280 278 274 273 273 272 272 272 272 271 273 274 274 271 266 262 260 255 248 245 245
264 267 272 277 282 286 287 289 292 294 296 298 298 300 301 300 298 298 298 297 295 295 297 299 300 300 299 300 302 304 306 305 304 305 305 304 301 298 294 292 291 289 287 286 285 286 286 287 289 291 292 292 292 291 289 288 288 287 287 288 288 285 283 281 277 274 271 270 272 271 271 272 273 273 273 273 272 271 268 263 260 254 246 241 240
263 267 272 278 282 284 287 292 295 297 299 301 300 300 299 297 294 293 293 294 294 293 294 295 295 295 296 298 299 300 302 304 304 305 306 304 302 299 296 295 294 291 289 287 287 286 286 285 286 285 284 284 284 283 283 284 284 284 285 286 286 284 282 279 274 271 270 269 270 270 272 274 274 271 270 268 267 267 267 264 259 251 242 237 235
262 267 272 277 281 284 288 293 298 300 302 302 300 299 299 297 293 291 292 293 293 291 291 291 292 293 294 295 296 298 301 303 304 305 306 305 304 304 302 301 300 298 294 292 291 290 288 286 284 283 281 280 278 278 279 280 281 282 281 282 282 280 279 277 273 270 268 267 268 269 271 272 270 268 267 266 265 266 266 262 257 249 239 232 229
259 265 270 275 280 285 289 294 299 301 302 302 301 299 299 298 295 294 296 297 293 289 288 289 292 294 293 293 296 299 300 302 303 305 306 306 306 306 306 305 305 303 301 301 303 303 301 297 292 289 286 282 280 280 280 281 282 281 280 280 279 278 277 274 271 269 267 266 266 266 268 269 268 268 268 267 266 268 265 257 250 244 236 227 223
257 262 268 274 280 286 291 296 299 300 301 303 303 302 302 301 295 290 291 291 286 282 282 286 290 293 294 295 297 297 298 301 304 306 307 308 308 308 308 308 308 307 308 311 312 311 309 305 302 301 298 295 292 289 288 289 289 287 287 287 284 282 280 276 273 271 269 267 264 264 266 268 268 270 270 270 272 272 262 248 241 239 232 222 219
256 262 268 275 282 289 294 297 299 300 301 302 303 304 305 307 305 298 294 291 288 286 286 287 290 292 294 297 300 300 300 303 306 309 311 311 311 311 310 310 310 312 315 317 316 311 308 307 305 303 301 298 295 294 294 295 293 290 291 291 288 285 282 278 275 273 270 267 266 265 265 266 269 271 271 272 275 270 255 242 236 232 225 219 217
258 265 272 278 285 291 294 296 297 299 300 301 302 304 306 310 313 315 313 308 303 302 300 295 293 296 300 303 306 307 308 309 312 314 315 315 314 314 315 315 315 318 320 321 318 314 314 312 308 305 304 301 298 299 299 299 297 295 293 292 291 288 284 281 278 275 271 268 266 264 265 266 269 270 271 275 276 267 249 238 234 226 219 214 211
261 269 276 282 287 291 293 294 295 296 298 300 303 304 305 308 311 315 319 320 320 320 317 309 301 305 311 312 312 313 314 317 319 320 319 319 319 320 321 319 318 321 325 325 322 318 316 313 309 307 307 304 303 303 303 300 300 300 298 294 292 290 288 286 283 278 272 268 264 263 265 267 268 269 272 277 278 268 251 244 237 224 216 211 206
261 269 277 283 288 291 292 292 292 294 296 298 300 302 304 305 307 311 316 321 324 327 328 328 324 321 320 319 319 320 322 324 325 325 325 325 326 326 325 323 324 328 332 330 322 317 315 313 311 309 309 307 306 305 304 302 302 302 300 298 298 296 295 291 285 277 271 267 264 262 263 264 266 269 272 277 278 269 256 250 242 229 220 211 201
261 268 275 282 286 289 290 290 290 292 294 296 298 301 302 304 304 305 308 313 315 316 319 325 330 333 332 330 328 328 329 331 332 333 333 333 334 335 336 335 335 335 334 331 325 320 316 313 312 311 311 309 307 306 305 304 303 301 299 301 304 304 302 296 285 276 271 267 265 264 264 265 267 268 270 275 277 270 257 246 239 233 224 214 203
262 268 275 281 286 288 288 288 289 291 293 296 297 298 298 300 303 304 305 306 305 305 309 317 326 334 339 341 340 338 338 338 339 340 341 342 343 345 345 340 335 331 328 328 327 323 318 315 313 311 310 309 307 307 306 304 303 302 303 305 307 307 306 301 289 280 275 270 267 267 267 267 269 270 272 275 276 272 263 247 236 230 222 215 209
262 270 277 283 285 286 286 288 290 293 294 292 292 294 297 300 303 304 304 305 305 304 307 315 323 331 336 342 348 347 343 340 341 344 347 348 349 349 346 338 330 326 324 325 326 323 320 318 316 314 312 310 308 307 306 305 305 306 308 310 309 308 309 307 297 286 278 272 270 270 268 268 269 271 273 274 274 274 268 250 231 222 216 212 206
262 270 278 283 285 286 288 290 291 291 290 289 291 294 298 301 303 304 303 304 305 306 309 315 320 324 328 335 345 349 345 340 343 348 350 350 350 349 344 338 333 329 324 324 325 323 320 320 320 319 316 314 312 310 309 308 309 311 312 312 311 311 314 316 311 300 288 278 272 270 269 269 271 272 271 269 268 271 267 249 225 212 206 203 200
263 270 276 280 281 280 281 282 284 286 287 290 293 296 297 299 301 302 303 305 306 307 311 315 318 321 326 333 340 345 343 340 342 345 345 345 346 346 343 340 337 333 329 327 327 325 322 321 322 321 320 319 317 315 313 312 312 314 315 314 313 313 315 318 320 316 307 297 288 282 277 274 274 274 272 267 263 261 255 240 223 212 202 197 198
264 270 274 276 277 276 275 275 278 282 286 288 292 295 295 296 298 300 302 304 305 308 312 313 316 323 332 334 336 340 339 337 338 339 339 339 341 342 341 341 338 335 333 331 329 328 326 324 324 323 322 323 323 321 319 317 317 318 319 317 316 315 315 318 322 322 320 315 308 301 293 286 282 278 271 264 260 255 246 233 221 215 210 207 206
263 267 271 275 276 276 274 274 276 280 283 285 289 291 291 292 295 298 299 301 303 307 312 314 317 327 335 333 332 336 337 335 335 337 336 335 336 337 338 339 338 336 335 333 332 332 331 329 328 327 326 326 327 328 327 326 324 324 324 325 323 320 319 322 326 326 325 322 319 315 311 304 297 289 278 268 262 255 244 233 224 218 215 213 206
259 262 268 272 273 272 272 273 277 280 281 281 284 287 289 291 294 294 295 299 303 308 313 317 322 331 337 336 334 337 340 340 339 338 336 335 335 335 336 337 338 338 338 336 336 335 334 333 333 332 331 331 332 333 334 335 334 331 329 330 331 329 325 326 330 332 330 328 325 323 322 318 312 303 292 281 271 257 241 230 222 213 206 200 189
256 260 265 269 269 269 271 275 277 277 278 281 284 287 288 288 288 289 292 298 304 309 313 318 325 332 338 342 343 345 348 349 346 342 339 338 337 337 337 339 340 342 342 342 341 340 338 338 338 338 338 337 336 336 337 339 340 338 333 332 334 334 331 332 335 336 334 332 330 328 326 324 321 314 302 290 277 255 228 213 201 192 185 177 168
254 258 261 264 267 268 269 271 272 273 277 281 283 284 284 283 284 287 292 296 304 310 313 317 324 329 334 342 349 352 353 352 348 345 344 342 340 341 343 344 345 345 346 347 347 346 344 343 343 343 344 345 345 344 342 342 344 344 341 337 336 336 336 336 337 338 337 335 333 331 329 329 327 324 315 296 264 224 196 181 173 168 164 159 156
253 255 258 261 263 265 267 268 270 271 275 278 279 280 281 280 281 286 292 297 305 311 315 320 325 327 331 340 349 351 351 350 348 347 346 345 344 346 348 349 350 350 350 351 351 351 350 349 347 347 348 350 351 351 349 347 348 348 347 345 342 340 340 340 340 340 340 339 336 334 334 335 337 339 340 329 210 173 162 159 158 156 153 152 152
250 252 255 258 260 263 267 269 268 269 271 274 277 280 282 281 282 287 293 299 305 312 317 323 326 328 332 341 347 349 349 349 348 348 348 347 348 350 351 352 354 355 355 355 356 356 356 355 353 351 350 351 352 354 354 354 353 351 351 352 351 348 346 346 344 343 343 343 342 340 339 342 349 357 5 28 98 124 132 138 144 146 146 145 146
249 249 252 256 259 264 268 269 268 269 270 270 273 278 281 284 288 290 294 300 306 311 317 321 325 329 335 341 345 346 347 347 346 347 347 348 350 351 352 354 356 357 358 359 359 360 1 1 359 356 353 352 353 355 356 357 358 356 355 356 356 355 353 351 350 349 348 348 348 349 351 358 12 22 35 63 88 103 111 117 122 130 135 136 137
250 249 251 255 258 262 266 266 265 267 269 271 272 276 280 285 289 291 295 300 305 310 315 318 321 327 333 338 340 343 343 343 343 344 346 348 350 351 352 354 355 356 357 359 0 1 2 3 4 3 360 356 356 356 357 358 360 360 359 359 359 358 357 355 355 355 354 354 357 3 8 18 32 43 54 70 82 91 99 104 109 116 121 124 128
251 250 252 254 257 260 265 266 265 267 270 271 273 275 280 284 287 290 295 299 302 307 312 314 318 324 329 332 335 338 339 339 340 342 343 345 348 349 350 351 352 353 354 356 358 359 0 1 4 6 4 2 360 359 358 359 360 1 1 0 0 0 360 359 360 0 0 1 8 17 24 35 48 56 62 72 81 88 92 95 100 107 110 112 116
254 253 253 256 259 262 263 263 265 268 270 271 273 277 281 284 286 289 294 297 300 303 306 309 313 319 323 327 330 331 332 334 336 337 339 341 343 344 346 347 348 349 351 352 354 356 358 359 1 3 4 5 5 3 0 360 0 1 2 2 2 3 3 2 3 5 7 11 18 26 34 45 56 61 66 75 81 85 88 90 93 98 100 101 105
258 257 257 259 262 263 263 263 265 267 268 269 273 278 281 284 287 291 293 295 298 301 303 306 309 313 317 321 323 324 326 328 329 331 333 335 336 339 341 341 343 345 346 347 350 352 354 356 357 359 360 2 4 5 4 2 0 0 2 4 4 4 5 6 6 8 11 16 25 35 44 53 60 62 67 74 80 82 84 88 92 95 96 97 101
Height
855 855 856 856 856 855 855 854 854 853 853 852 851 850 849 848 846 845 844 843 843 842 842 842 841 840 839 838 837 836 835 835 833 832 831 829 828 827 825 824 822 820 819 818 817 816 815 813 812 811 811 810 808 807 807 806 805 804 804 802 800 800 799 798 794 783 780 783 781 777 778 778 774 773 773 772 772 773 771 770 770 770 769 769 770
855 855 855 855 855 854 854 853 853 852 851 850 849 848 847 846 845 845 844 843 843 842 841 840 839 839 838 837 836 835 834 833 832 831 829 828 826 825 823 822 819 818 816 814 813 813 811 810 808 808 808 807 805 804 803 803 802 800 800 799 796 795 795 793 790 783 777 778 779 775 774 774 770 768 770 769 768 769 768 766 766 766 766 766 765
855 854 854 854 853 853 852 852 851 851 850 849 848 848 847 846 845 844 843 843 842 841 840 839 838 837 836 835 834 833 832 831 831 830 828 826 825 823 822 820 818 816 814 811 810 809 808 806 805 805 805 804 801 800 800 799 799 797 795 795 793 791 791 790 787 782 775 773 775 773 771 770 767 765 766 765 764 765 763 761 762 761 761 761 761
853 853 853 852 852 851 851 850 850 849 849 848 847 847 846 845 844 843 842 841 840 840 839 837 836 835 834 833 831 831 830 829 828 827 826 825 823 821 820 818 816 814 812 810 808 806 805 802 800 801 802 800 797 796 797 796 795 794 791 790 790 788 787 787 784 780 774 769 769 770 768 766 763 762 763 762 761 760 758 757 757 756 756 757 757
852 851 851 850 850 850 849 849 849 848 848 847 846 845 844 843 843 842 840 840 839 837 836 835 834 833 831 830 829 828 828 827 826 824 824 823 821 819 818 816 814 812 810 808 806 805 803 800 798 797 797 796 794 792 793 793 791 791 789 787 786 784 783 782 780 777 773 767 763 764 765 763 760 758 759 758 757 756 754 753 752 752 752 752 752
849 849 849 849 848 848 848 847 847 847 846 846 845 844 843 842 841 841 839 838 837 836 835 833 832 831 829 828 827 826 825 825 823 822 821 820 818 816 814 812 810 809 807 805 804 802 801 798 796 795 794 793 790 788 788 789 787 786 785 783 783 782 780 778 776 774 770 765 761 759 759 759 757 754 754 755 754 752 750 749 748 748 749 748 747
847 847 847 847 847 847 846 846 846 846 845 844 844 843 842 842 840 839 838 837 836 834 833 832 830 829 827 826 825 824 823 822 821 820 819 817 815 813 811 809 806 804 803 801 800 798 797 796 794 792 792 790 788 786 785 784 783 782 781 780 779 778 776 774 772 770 767 762 758 755 754 754 753 750 750 751 750 748 747 746 745 745 745 745 744
845 845 845 845 846 845 845 845 845 845 844 843 843 842 841 840 839 838 837 835 834 833 831 829 828 827 825 824 823 821 820 819 818 817 816 814 812 810 807 805 802 800 798 796 795 794 792 791 790 788 788 787 785 784 782 782 781 778 776 776 775 774 772 770 768 766 764 759 755 752 751 750 749 747 747 748 747 744 744 744 742 740 741 741 740
842 843 843 843 844 843 844 844 843 843 843 841 841 840 839 838 837 836 835 833 832 830 829 828 825 823 822 821 820 819 817 816 815 815 814 811 809 807 804 802 799 796 793 791 789 788 787 786 785 784 783 782 781 780 779 779 778 775 772 772 771 770 767 765 764 762 760 756 752 749 747 745 744 744 743 743 742 740 741 742 739 737 738 737 736
840 841 841 842 842 841 842 842 841 841 841 839 839 837 836 835 834 833 831 830 829 827 826 825 823 821 819 817 816 815 814 813 813 812 812 810 807 804 800 798 795 793 790 786 784 782 782 781 780 778 778 777 776 776 775 774 773 772 770 768 767 766 763 760 758 757 755 752 749 746 744 741 739 740 739 738 738 738 738 739 736 735 736 735 731
839 839 839 840 840 840 840 840 840 839 838 838 837 835 834 833 831 830 828 827 826 824 823 822 820 819 817 815 814 812 811 810 810 809 808 807 805 802 798 794 791 789 786 784 780 777 776 775 774 773 772 771 771 770 769 768 767 766 765 763 762 761 759 756 753 751 750 748 745 743 740 736 734 735 736 735 735 734 734 734 733 732 733 732 728
837 837 837 837 837 838 838 838 838 837 836 836 834 833 832 830 829 828 826 824 823 821 820 819 817 816 814 813 811 809 808 807 807 806 804 803 803 800 796 792 788 785 783 781 778 775 773 771 770 768 768 768 767 766 764 763 762 760 759 757 756 755 754 752 749 747 745 743 740 737 735 733 730 730 732 732 732 731 730 730 729 728 728 728 725
834 834 835 835 835 836 836 835 835 835 834 834 832 831 830 828 827 825 824 822 821 819 818 816 815 814 812 810 808 806 805 804 803 803 801 800 799 797 793 790 786 783 781 779 776 773 771 769 766 764 765 764 763 762 760 757 756 754 753 751 749 748 747 747 745 743 741 739 736 732 730 730 727 725 728 730 730 728 727 725 724 724 724 722 720
832 832 832 833 833 833 833 833 833 832 832 831 830 829 828 826 825 823 822 820 818 817 815 813 812 811 809 807 804 802 801 800 800 799 797 796 795 793 790 787 784 781 778 776 774 771 770 768 764 761 761 761 759 758 755 753 750 748 746 745 743 741 740 740 739 738 737 735 732 728 726 726 724 721 724 727 727 725 722 721 720 719 718 716 715
829 830 830 830 830 830 830 830 830 830 829 828 827 826 825 823 822 821 819 818 816 814 813 811 809 808 806 805 802 799 798 797 796 795 793 792 791 789 787 783 780 777 775 774 772 769 767 766 762 760 758 757 756 754 752 749 746 743 740 738 736 735 734 733 732 732 731 731 729 725 722 721 720 718 718 720 721 720 719 718 716 715 714 712 711
827 827 828 828 828 828 828 828 827 827 826 825 824 823 822 821 820 818 817 815 814 812 810 808 807 805 803 802 799 796 794 795 794 792 790 790 788 785 783 780 777 774 772 770 769 766 765 763 760 758 756 754 753 751 749 746 742 739 736 733 731 729 727 727 728 728 727 726 723 721 717 715 714 713 713 714 714 715 715 714 712 712 710 708 706
824 825 825 825 825 825 825 825 825 824 824 823 822 821 820 818 817 816 814 812 811 809 807 806 804 802 801 800 797 793 791 791 791 789 788 787 785 782 779 776 774 771 768 767 765 763 762 760 758 755 752 750 749 747 745 742 738 735 732 728 725 722 720 722 724 723 722 720 717 715 712 710 708 708 708 708 708 710 710 707 706 707 705 703 701
822 822 823 823 823 823 824 823 823 822 821 820 819 818 817 816 815 814 812 810 808 807 805 803 801 800 799 797 796 792 787 787 788 786 785 784 782 779 776 773 770 768 765 763 762 760 758 757 756 753 749 746 744 742 741 738 734 731 728 723 719 716 716 718 718 716 714 713 711 709 707 705 704 702 702 702 702 704 703 699 699 701 699 697 696
820 820 820 821 822 822 822 822 821 820 819 818 817 816 814 813 812 811 810 808 806 804 802 800 798 797 796 794 793 791 786 784 784 783 781 780 779 777 773 770 766 764 761 759 757 756 754 752 751 749 744 741 739 737 735 733 730 727 724 720 715 712 713 715 713 710 709 707 705 704 702 700 699 697 696 696 696 697 696 694 694 694 692 691 691
818 818 819 819 820 820 820 820 819 819 817 816 815 813 812 811 810 808 807 805 803 801 800 798 795 793 793 791 789 788 785 781 780 779 778 777 776 774 770 767 763 759 757 755 752 750 748 746 744 743 739 736 733 731 730 729 726 723 720 717 711 708 709 709 707 705 704 701 699 699 696 694 694 692 691 690 689 688 688 688 687 686 685 684 683
816 817 817 818 818 818 818 818 817 816 815 814 812 811 810 809 807 806 804 802 801 798 796 795 792 789 789 788 786 785 783 780 777 776 775 773 772 770 767 764 760 756 752 750 747 744 741 739 738 736 733 730 728 726 724 723 720 717 715 712 707 705 704 702 699 699 697 694 693 692 689 688 687 686 685 684 682 681 680 680 679 679 678 676 676
814 815 815 816 816 816 816 815 815 814 813 811 809 808 807 806 805 803 802 800 798 796 793 792 790 786 785 784 783 781 780 778 775 773 771 769 768 767 763 760 757 754 749 745 743 740 737 735 732 730 728 725 723 721 718 716 713 711 709 707 703 701 700 697 694 692 691 689 687 684 682 681 680 678 678 677 675 675 674 672 671 671 670 669 669
812 812 813 813 813 813 813 812 812 811 810 809 807 805 804 803 802 801 800 797 795 793 791 789 787 784 781 780 779 777 776 774 773 770 767 765 763 762 760 756 754 751 746 741 739 736 732 729 726 724 722 719 717 714 711 709 707 705 703 701 698 696 695 692 690 687 685 683 681 678 675 674 673 672 670 669 668 668 668 666 665 664 663 663 663
810 810 811 811 811 811 810 810 809 808 807 806 804 802 801 800 799 798 797 795 793 790 788 787 785 782 778 775 774 773 772 770 768 766 764 762 759 757 755 752 750 747 743 738 735 731 727 724 720 717 715 713 710 708 706 704 702 700 697 695 693 692 690 688 686 684 681 678 675 672 669 668 668 666 665 664 663 662 662 660 658 657 656 656 656
807 808 808 808 808 808 807 807 806 805 804 803 801 800 799 797 796 795 794 793 791 788 786 785 783 780 777 773 770 769 768 766 764 762 760 758 755 753 751 748 745 742 738 734 731 727 723 719 715 712 710 707 704 702 700 698 697 695 692 690 688 687 685 683 681 679 675 672 669 666 663 662 661 661 660 660 658 656 655 653 652 651 650 649 649
805 806 806 805 806 805 804 804 803 802 801 800 798 797 796 795 793 792 791 790 788 786 784 782 781 778 775 772 768 766 764 763 760 758 756 753 750 748 745 742 739 736 733 729 725 721 718 714 710 707 704 702 700 697 694 693 691 689 687 685 683 681 680 678 676 673 670 666 664 660 657 655 655 655 654 653 651 649 648 647 645 643 643 642 642
802 803 803 803 803 802 801 801 800 799 798 797 796 795 793 792 791 789 788 786 785 783 781 780 778 776 773 770 766 763 761 759 756 754 751 748 745 742 739 735 732 729 726 722 718 715 711 708 705 701 699 697 695 692 690 688 686 684 682 680 678 676 673 671 669 667 664 660 657 653 651 650 649 647 646 645 642 640 640 641 638 635 635 635 635
800 800 800 800 800 800 799 798 797 796 795 794 793 791 790 790 788 785 785 784 782 780 778 777 775 773 770 767 764 760 757 755 753 750 747 744 741 737 734 731 728 725 721 716 712 708 704 701 698 696 693 691 689 687 685 683 681 678 676 674 671 669 667 665 662 660 657 654 650 647 645 644 642 640 639 637 634 632 631 632 630 628 628 628 627
797 798 797 797 797 796 796 795 794 793 792 790 789 788 787 787 784 781 781 781 779 777 775 773 772 770 768 765 762 758 754 752 750 748 745 742 738 735 731 728 724 721 717 713 709 704 700 697 694 692 689 687 685 683 681 678 676 673 671 668 666 663 661 659 655 652 650 647 644 641 639 638 635 633 632 629 626 624 623 622 621 620 620 620 619
795 795 795 795 794 794 793 792 792 791 789 787 786 784 783 783 782 780 778 777 777 776 774 772 770 768 765 763 761 757 753 749 747 745 742 739 736 732 728 725 721 717 713 710 706 702 698 695 692 690 688 685 683 680 677 675 672 668 665 663 661 658 655 652 649 645 642 640 638 635 634 632 629 627 626 623 619 616 614 612 612 613 613 613 612
792 792 792 792 792 791 791 790 789 788 787 785 784 781 779 778 778 777 776 774 773 772 771 769 768 766 763 760 757 755 751 747 745 742 738 735 733 729 726 722 718 714 711 707 704 700 697 694 691 689 687 684 681 678 675 672 668 664 660 657 654 651 648 645 642 639 636 633 631 629 628 626 624 622 620 617 612 608 605 604 605 605 605 605 606
789 789 790 790 790 789 789 788 787 786 784 783 782 780 777 774 771 771 771 771 770 768 766 765 764 763 761 758 754 751 748 745 742 739 735 732 729 726 723 719 715 712 709 706 703 699 697 694 691 687 685 682 678 675 672 668 665 661 657 653 648 645 642 638 634 632 629 627 626 624 622 621 619 617 614 610 605 601 598 597 597 597 597 598 599
787 787 788 787 787 787 786 785 785 784 782 781 780 778 777 774 770 766 764 764 764 763 762 762 761 759 757 754 752 749 745 742 739 736 732 730 726 723 720 716 713 710 708 705 702 699 696 693 690 686 683 680 676 673 670 666 662 658 654 650 644 639 635 631 628 626 624 622 620 619 617 616 614 612 608 604 600 596 594 593 592 592 592 592 594
785 785 785 785 784 784 784 783 782 781 780 779 778 776 775 773 771 768 764 760 758 757 756 756 756 756 754 751 748 746 743 739 736 733 730 727 724 721 717 713 710 708 706 705 702 699 696 692 688 685 682 679 675 672 668 663 659 655 650 646 640 634 629 625 622 620 618 617 615 614 612 610 608 606 603 599 595 593 591 589 589 589 589 589 590
783 783 782 782 782 781 781 781 780 779 778 777 776 774 773 772 770 769 766 763 760 757 753 750 749 749 749 747 744 742 740 737 734 731 728 725 722 718 714 710 707 704 703 702 700 698 695 692 688 684 681 678 674 671 666 662 657 653 647 642 636 630 625 620 618 616 614 612 611 609 607 605 603 601 598 595 592 589 587 586 586 586 586 587 589
780 780 779 780 779 779 778 778 777 776 775 774 773 772 771 770 769 767 765 764 762 759 755 750 746 744 743 743 741 738 735 733 731 729 726 723 720 717 713 710 708 705 702 699 697 695 693 690 687 684 680 676 672 668 664 660 655 650 645 640 634 628 622 617 614 612 610 608 606 604 603 601 599 596 594 591 588 586 584 583 582 582 583 584 586
777 777 777 777 777 776 776 775 774 774 773 772 771 770 769 768 767 765 764 762 760 758 755 752 748 743 740 739 738 735 731 730 730 727 724 722 719 716 714 712 709 706 702 699 696 693 690 687 685 682 678 674 670 666 662 658 653 648 643 638 633 627 621 616 611 608 606 604 602 600 598 596 594 592 590 587 585 583 581 580 579 579 579 581 583
774 774 774 774 774 774 773 772 772 772 771 770 769 768 767 765 764 763 762 760 759 757 754 751 749 745 741 738 735 733 730 728 725 722 720 718 716 715 713 711 709 706 702 699 696 693 689 685 682 679 676 672 668 664 660 655 651 646 642 636 631 626 620 615 610 606 603 600 598 595 593 591 589 587 586 584 582 580 579 578 577 577 578 579 581
771 771 771 771 771 771 771 770 770 769 768 767 766 765 764 763 762 761 760 758 756 755 753 750 748 746 743 739 735 732 730 727 723 719 717 715 714 713 711 709 706 704 701 698 695 692 688 684 680 677 674 670 666 662 658 654 649 645 640 635 630 625 620 615 610 606 602 598 595 592 590 587 585 584 582 581 579 578 577 577 577 577 577 579 580
768 768 768 768 768 768 768 768 767 766 765 765 764 763 762 761 760 759 758 756 754 753 751 749 747 744 742 740 737 735 732 729 726 723 719 716 714 712 710 708 705 702 700 697 694 691 687 683 679 676 672 668 664 660 656 652 648 643 639 635 630 625 620 615 611 606 602 598 594 590 587 584 582 581 579 578 577 576 575 575 575 576 577 578 579
765 765 765 765 766 766 765 765 764 764 763 762 761 761 760 759 758 757 756 754 753 751 749 747 745 743 741 740 738 737 734 731 728 725 722 719 716 713 710 708 705 702 699 696 692 689 686 682 678 675 671 667 663 659 655 650 646 642 638 634 629 625 620 615 611 606 602 598 593 589 586 582 580 578 577 576 574 574 574 574 574 574 575 577 578
761 761 762 762 763 762 762 762 762 761 761 760 759 758 758 757 756 755 754 752 751 749 747 745 743 741 740 739 737 736 733 730 728 725 723 720 717 714 711 708 705 702 699 695 692 689 685 681 678 674 670 666 662 658 653 649 645 641 637 633 629 624 620 615 611 606 602 598 593 589 586 582 578 577 576 575 574 573 573 573 573 574 575 576 578
758 758 759 759 759 760 760 759 759 759 758 757 756 756 755 755 754 753 752 750 749 747 745 743 741 739 738 737 735 733 730 728 726 724 722 720 717 714 711 708 704 701 698 695 692 689 685 681 677 673 670 666 662 658 654 650 646 641 637 633 629 625 620 615 611 606 602 598 594 590 587 583 579 577 576 575 574 574 574 573 574 574 575 577 578
755 755 756 756 756 757 757 756 756 756 755 755 754 754 753 752 751 750 749 748 747 745 744 742 740 738 736 734 732 730 728 726 724 722 720 718 716 713 710 706 703 700 697 694 691 688 685 681 677 673 669 666 662 658 654 651 647 642 638 634 629 625 620 616 611 607 603 599 595 591 588 585 582 579 577 576 575 575 575 575 575 576 576 577 579
752 753 753 753 754 754 754 754 754 753 753 753 752 751 751 750 749 748 747 746 744 743 742 740 739 737 735 732 730 728 726 725 723 721 719 717 714 711 708 705 702 699 696 693 690 687 684 681 677 673 669 665 662 658 654 650 647 643 639 635 630 626 621 617 613 609 605 601 597 593 590 587 584 582 579 578 577 576 576 576 577 577 578 579 580
750 750 750 751 751 751 751 752 751 751 751 750 749 749 748 748 747 746 745 744 742 741 739 738 737 735 733 731 728 727 725 724 722 720 718 715 713 710 707 704 701 698 695 693 690 687 684 680 677 673 670 666 662 658 654 650 647 643 639 636 632 627 623 618 614 610 606 602 599 595 592 590 587 585 582 581 579 578 578 578 578 579 580 581 582
748 748 748 748 749 749 749 749 749 748 748 748 747 747 746 745 744 744 743 741 740 739 737 736 735 733 731 729 727 725 724 723 721 719 717 714 712 709 706 704 701 698 695 692 690 687 683 680 677 673 670 666 663 659 655 651 647 643 640 636 632 628 623 619 615 611 608 604 601 598 595 592 590 587 585 584 582 581 581 581 581 581 582 583 584
745 746 746 746 746 746 746 746 746 746 746 746 745 745 744 743 742 741 740 739 738 737 735 734 733 731 730 728 726 725 723 721 720 718 716 713 711 709 706 703 700 697 695 692 689 686 683 680 677 674 670 667 663 660 656 652 648 644 640 637 633 629 625 620 616 613 609 606 603 600 597 595 592 590 588 587 586 585 584 584 584 584 585 586 587
743 743 744 744 744 744 744 744 744 744 744 743 743 742 741 741 740 739 738 737 736 735 734 733 731 730 728 727 725 723 722 720 718 717 714 712 710 708 705 703 700 697 695 692 689 686 683 680 677 674 671 668 664 661 657 654 650 646 642 638 635 631 627 622 618 615 612 608 605 602 600 598 595 593 592 590 589 588 588 587 587 588 588 589 590
741 741 742 742 742 742 742 742 742 742 741 741 741 740 739 738 738 737 736 735 734 733 732 731 730 728 727 725 723 722 720 719 717 715 713 711 709 707 704 702 699 697 694 692 689 686 683 680 677 674 672 668 665 662 659 655 652 648 644 641 637 633 629 625 621 617 614 611 608 605 603 601 599 597 595 594 593 592 592 591 591 591 592 592 593
739 740 740 739 740 740 740 740 739 739 739 739 738 737 737 736 735 735 734 733 732 731 730 729 728 726 725 723 722 720 718 717 716 714 712 710 708 705 703 701 698 696 694 691 688 686 683 680 677 674 671 669 666 663 659 657 654 650 646 642 638 635 631 627 624 621 617 614 612 609 607 604 603 601 599 598 597 596 596 595 595 595 596 597 597